Content
SEND FEEDBACK

Daily
Averages
Monthly
Summary
United States of America

BEACON, NEW YORK


Home > North America > United States > New York
Elevation: 272 feet     Latitude: 41 31N     Longitude: 073 55W

WEATHER
 
SELECT A DAY
Number of Records: 194,760;   Date Range: 1/1/95 - 9/20/14
 
SHARE

PRINT THIS DATA

[ ← Previous Day ]
WEATHER ALMANAC - FEBRUARY 3, 2013
[ Next Day → ]
[ °C ]   °F
Weather ElementAverageHighLow
Temperature22.4 °F30 °F (3:53 pm)12.9 °F (6:53 am)
Dewpoint13.8 °F17.6 °F (1:07 am)8.1 °F (6:53 am)
Humidity71 %86 % (1:07 am)45 % (1:53 pm)
Barometer29.89 in30.03 in (12:53 am)29.78 in (4:53 pm)
Wind Speed0.6 mph6.9 mph (3:53 pm)
Weather ElementAverage
Visibility8 mi
Wind DirectionNNE (27.7 °)

Weather ElementTotal
Precipitation---
Heating Degree Days43.6 (Base 65)
Averaged from 26 records on February 3, 2013
WEATHER CONDITIONS BREAKOUT
WIND DIRECTION BREAKOUT
WEATHER BY HOUR - FEBRUARY 3, 2013
[ °C ]   °F
Local TimeTemperatureDewpointHumidityBarometerVisibilityWind DirectionWind SpeedGust SpeedPrecipitationEventsConditions
12:53 AM21.9 °F17.1 °F82 %30.03 in4.0 miCalm0.00 inHaze
1:07 AM21.2 °F17.6 °F86 %30.03 in2.5 miCalm0.00 inSnowLight Snow
1:18 AM21.2 °F17.6 °F86 %30.03 in3.0 miCalm0.00 inSnowLight Snow
1:53 AM21.9 °F17.1 °F82 %30.01 in9.0 miCalm0.00 inOvercast
2:53 AM19.9 °F16.0 °F85 %29.99 in6.0 miCalmClear
3:53 AM18.0 °F14.0 °F84 %29.97 in5.0 miCalmClear
4:53 AM15.1 °F10.9 °F84 %29.96 in7.0 miCalmClear
5:53 AM15.1 °F9.0 °F77 %29.95 in6.0 miCalmHaze
6:53 AM12.9 °F8.1 °F81 %29.95 in7.0 miCalmClear
7:53 AM14.0 °F10.0 °F84 %29.97 in4.0 miCalmClear
8:53 AM19.0 °F14.0 °F81 %29.96 in7.0 miCalmClear
9:53 AM21.9 °F17.1 °F82 %29.95 in8.0 miCalmOvercast
10:53 AM25.0 °F14.0 °F63 %29.92 in10.0 miCalmOvercast
11:53 AM26.1 °F14.0 °F60 %29.88 in10.0 miCalmOvercast
12:53 PM28.0 °F12.9 °F53 %29.84 in10.0 miCalmOvercast
1:53 PM28.9 °F10.0 °F45 %29.81 in10.0 miCalmClear
2:53 PM28.9 °F12.0 °F49 %29.80 in10.0 miCalmScattered Clouds
3:53 PM30.0 °F12.9 °F49 %29.79 in10.0 miWSW (250°)6.9 mphOvercast
4:53 PM28.9 °F12.9 °F51 %29.78 in10.0 miWSW (240°)4.6 mphClear
5:53 PM27.0 °F14.0 °F58 %29.78 in10.0 miCalmClear
6:53 PM24.1 °F12.9 °F62 %29.78 in10.0 miCalmClear
7:53 PM21.9 °F14.0 °F72 %29.79 in10.0 miCalmMostly Cloudy
8:53 PM21.0 °F14.0 °F74 %29.80 in10.0 miCalmMostly Cloudy
9:53 PM21.9 °F14.0 °F72 %29.79 in10.0 miCalmMostly Cloudy
10:53 PM23.0 °F16.0 °F74 %29.78 in10.0 miSW (230°)3.5 mphOvercast
11:53 PM25.0 °F16.0 °F69 %29.78 in10.0 miCalmOvercast
Hourly data recorded from KPOU, located miles away from Beacon, New York







STORIES FROM OUR PARTNERS